Regional Weather Roundup
Issued by NWS

Home | Current Version | Previous Version | Graphics & Text | Print | Product List | Glossary On
Versions: 1 2 3 4 5 6 7 8 9 10 11 12 13 14 15 16 17 18 19 20 21 22 23 24 25 26 27 28
000
ASUS45 KSLC 291110
RWRUT

UTAH REGIONAL WEATHER ROUNDUP
NATIONAL WEATHER SERVICE SALT LAKE CITY UT
500 AM MDT WED OCT 29 2014

UTZ001>011-023>025-291200-

NORTHERN UTAH

CITY           SKY/WX    TMP DP  RH WIND       PRES   REMARKS
BRIGHAM CITY   CLEAR     31  24  73 CALM      30.27R
HILL AFB       CLEAR     39  15  38 E16       30.25F WCI  30
LOGAN          CLEAR     26  20  77 CALM      30.27S
OGDEN          CLEAR     38  17  42 S8        30.25S WCI  32
PROVO AIRPORT  CLEAR     30  18  59 CALM      30.28S
SALT LAKE CITY CLEAR     35  24  64 SE9       30.25S WCI  28
VERNAL         CLEAR     27  19  72 W5        30.30S WCI  22
WENDOVER       PTCLDY    34  21  60 CALM      30.26R
HEBER CITY     CLEAR     27  18  69 CALM      30.30F
WEST JORDAN    CLEAR     39  28  65 S7        30.27S WCI  34

$$

UTZ012>022-026-027-291200-

SOUTHERN/CENTRAL UTAH

CITY           SKY/WX    TMP DP  RH WIND       PRES   REMARKS
BLANDING       PTCLDY    37  14  38 NE3       30.35S
BRYCE CANYON   CLEAR     24  14  65 W9        30.36S WCI  14
CEDAR CITY     PTCLDY    28  16  60 CALM      30.27F
DELTA          PTCLDY    34  18  53 NE5       30.27F WCI  29
HANKSVILLE       N/A     28  10  47 CALM      30.29F
MILFORD        PTCLDY    31  15  52 S3        30.28R
MOAB/CYNLANDS  CLEAR     36  11  35 CALM      30.27S
PRICE          CLEAR     34  10  37 NE6       30.28F WCI  29
ST GEORGE      SUNNY     46  10  23 SE7       30.21S
KANAB            N/A     41  16  36 NW17      30.28S

$$

REGIONAL REPORTS     COLORADO/ARIZONA

CITY           SKY/WX    TMP DP  RH WIND       PRES   REMARKS
CRAIG, CO      PTCLDY    18  15  88 SW3       30.32S
GRAND JUNCTION PTCLDY    33  14  45 E6        30.30R WCI  28
RIFLE          CLEAR     27  14  58 CALM      30.34S
MONTROSE       PTCLDY    31  14  49 SE7       30.35R WCI  24
CORTEZ         CLEAR     26  15  63 E6        30.30S WCI  19
PAGE, AZ       PTCLDY    49  20  31 NW3       30.23S
GRAND CANYON   PTCLDY    28  18  66 NE3       30.31S
KINGMAN        CLEAR     45  26  47 E3        30.15S
FLAGSTAFF      CLEAR     32  27  81 CALM      30.31F

$$

REGIONAL REPORTS    NEVADA/IDAHO/WYOMING

CITY           SKY/WX    TMP DP  RH WIND       PRES   REMARKS
LAS VEGAS, NV  CLEAR     57  21  24 S10       30.09R
ELY            CLEAR     30  13  49 S14       30.30S WCI  19
ELKO           CLEAR     30  12  47 E6        30.27S WCI  24
POCATELLO, ID  MOCLDY    29  22  75 N7        30.21S WCI  22
BURLEY         MOCLDY    40  24  53 SW6       30.17F
EVANSTON, WY   CLEAR     33   7  33 S6        30.30R WCI  28
ROCK SPRINGS   PTCLDY    32  10  40 W13       30.27S WCI  22

$$



USA.gov is the U.S. government's official web portal to all federal, state and local government web resources and services.